IRIDIUM 36 (24967 NORAD) Tracking and Keplerian Element Data

This shows tracking and keplerian element data for the satellite.

Feedback or suggestion? Click here.




ElementValue
Catalog24967
NameIRIDIUM 36
Epoch Orbit47882
Epoch Day353.35233102
Epoch Year2025
RAAN95.2044
Inclination86.3963
Eccentricity0.0002249
Argument of Perigee101.1266
Mean Anonmoly259.0185
Mean Motion14.3778962
Decay Rate3.15E-06
L11 24967U 97056C 25353.35233102 .00000315 00000+0 97944-4 0 9997
L22 24967 86.3963 95.2044 0002249 101.1266 259.0185 14.37789620478829



Live tracking and technical data element details for IRIDIUM 36 (NORAD 24967). IRIDIUM 36 can be tracked NOW for your location showing map with azimuth and elevation plus other details from your city location.







IsCatalogInMostPopularTable: catalog: 24967, numindb: 590
Update: records affected: 1



GetName: 24967 IRIDIUM 36

Hit Count: updated at: Mon, 18 May 2026 10:23:56 GMT